Regional Weather Roundup
Issued by NWS

Home | Current Version | Previous Version | Text Only | Print | Product List | Glossary On
Versions: 1 2 3 4 5 6 7 8 9 10 11 12 13 14 15 16 17 18 19 20 21 22 23 24 25 26 27 28 29 30 31 32 33 34 35 36 37 38 39 40 41 42 43 44 45 46 47 48 49 50
873
ASUS42 KTBW 211216
RWRFL
FLORIDA REGIONAL WEATHER ROUNDUP
NATIONAL WEATHER SERVICE TAMPA BAY RUSKIN FL
700 AM EST TUE FEB 21 2017

NOTE: "FAIR" INDICATES FEW OR NO CLOUDS BELOW 12,000 FEET WITH NO
SIGNIFICANT WEATHER AND/OR OBSTRUCTIONS TO VISIBILITY.

FLZ001>010-012>015-112-114-115-211300-
PANHANDLE FLORIDA

CITY           SKY/WX    TMP DP  RH WIND       PRES   REMARKS
PENSACOLA      RAIN      64  61  90 NW14      29.99R FOG
PENSACOLA NAS  RAIN      63  61  93 N9        29.98S FOG
MILTON NAS     HVY RAIN  62  61  96 NW15G24   30.00  FOG
CRESTVIEW      RAIN      63  59  87 SE10G18   30.03R FOG
DUKE FIELD     HVY RAIN  64  61  90 SE10      29.99F FOG
VALPARAISO     LGT RAIN  66  65  97 SE7       30.00R FOG
MARY ESTHER    LGT RAIN  68  64  88 SE13      29.96
PANAMA CITY    CLOUDY    62  61  96 NE6       30.01S
TYNDALL AFB    CLOUDY    64  61  92 E14       30.01F
APALACHICOLA   MOCLDY    67  64  90 SE9       30.04S

STATION/POSITION SKY/WX   TEMP    WIND        PRES    WAVE   SWELL
                          AIR SEA DIR/SP/G            HT/PER HT/PER
                          (F)     (DEG/KT/KT) (MB)    (FT/S) (FT/S)
30.1N   87.6W              66 68  350/ 17/ 19 1014.7R   5/ 4
28.8N   86.0W              71 70              1016.1F   2/ 4
PANAMA CITY BEAC           65     100/ 12/ 16 1016.3R
TOWER C                    68     130/ 16/ 18 1017.8R
28.5N   84.5W              70 70  130/ 14/ 17 1017.2R   2/ 3

$$
FLZ011-016>038-118-127-128-134-139-239-211300-
NORTH FLORIDA

CITY           SKY/WX    TMP DP  RH WIND       PRES   REMARKS
MARIANNA       CLOUDY    60  55  83 E3        30.03S
TALLAHASSEE    CLOUDY    58  57  97 E8        30.06S
PERRY          CLOUDY    61  59  93 SE7       30.09F
CROSS CITY     CLOUDY    61  59  94 SE3       30.10S FOG
LAKE CITY      CLOUDY    55  55 100 E6        30.11F FOG
GAINESVILLE    FOG       58  57  97 CALM      30.12S VSB 1/4
WILLISTON      FOG       61  61 100 CALM      30.12S VSB 0
PALATKA        FOG       55  55 100 CALM      30.13F VSB 1/4
MAYPORT NAS    MOCLDY    60  59  96 CALM      30.13S
JACKSONVILLE   FOG       53  53 100 NE3       30.13S VSB 1/2
JAX NAS        FOG       61  60  97 N3        30.14S VSB 1/2
FERNANDINA BEA   N/A     61  59  94 CALM      30.12F VSB 3/4
ST AUGUSTINE   PTCLDY    58  56  93 CALM      30.14S

STATION/POSITION SKY/WX   TEMP    WIND        PRES    WAVE   SWELL
                          AIR SEA DIR/SP/G            HT/PER HT/PER
                          (F)     (DEG/KT/KT) (MB)    (FT/S) (FT/S)
SHELL POINT      NOT AVBL
KEATON BEACH               61      90/ 10/ 11 1018.3S
CEDAR KEY                  65     110/ 11/ 12 1019.4R
FERNANDINA                 63 66   CALM  /  1 1021.1R
30.7N   81.3W                 64                N/A     1/ 4
MAYPORT                    63 66   CALM  /  1 1020.6S
31.4N   80.9W              64 62   50/  6/  6 1020.5R   1/ 4   2/ 4
ST AUGUSTINE               65 67  230/  2/  2 1021.2R

$$
FLZ040-043>046-052-053-057-058-063-144-211300-
INTERIOR CENTRAL FLORIDA

CITY           SKY/WX    TMP DP  RH WIND       PRES   REMARKS
OCALA          FOG       57  55  94 CALM      30.13R VSB 1/2
THE VILLAGES     N/A     59  59 100 CALM      30.03S
LEESBURG       FOG       62  61  96 NE3       30.13R VSB 1/2
SANFORD        CLOUDY    59  57  93 CALM      30.13S
ORLANDO EXEC   PTCLDY    61  60  97 CALM      30.12S
ORLANDO INTL   CLOUDY    62  59  90 CALM      30.13R
KISSIMMEE      CLOUDY    63  62  97 CALM      30.13R
WINTER HAVEN   MOCLDY    63  61  93 CALM      30.13R
LAKELAND       PTCLDY    64  63  94 E7        30.12R
BARTOW         CLOUDY    59 N/A N/A NE3       30.12S
OKEECHOBEE     MOCLDY    55  54  94 CALM      30.12R FOG

$$
FLZ041-047-054-059-064-141-147-211300-
EAST CENTRAL FLORIDA

CITY           SKY/WX    TMP DP  RH WIND       PRES   REMARKS
ORMOND BEACH   FOG       55  54  94 CALM      30.13  VSB 1/2
DAYTONA BEACH  MOCLDY    57  57 100 CALM      30.13R
DELAND         CLOUDY    55  55 100 CALM      30.13S
NEW SMYRNA BEA PTCLDY    61  59  94 CALM      30.12
JFK SPACE CTR  CLEAR     56  56 100 CALM      30.11R
TITUSVILLE     CLEAR     63  61  94 W6        30.13
CAPE CANAVERAL CLEAR     57  54  89 CALM      30.11R
PATRICK AFB    PTCLDY    67  63  86 CALM      30.11R
MELBOURNE      MOCLDY    58  57  97 W6        30.11R
VERO BEACH     MOCLDY    56  55  97 CALM      30.11R
FT PIERCE      PTCLDY    56  55  97 CALM      30.10R
STUART         MOCLDY    66  61  82 CALM      30.11R

STATION/POSITION SKY/WX   TEMP    WIND        PRES    WAVE   SWELL
                          AIR SEA DIR/SP/G            HT/PER HT/PER
                          (F)     (DEG/KT/KT) (MB)    (FT/S) (FT/S)
TRIDENT PIER               61 71   20/  2/  3 1020.9R
28.4N   80.5W                 71                N/A     1/ 6
27.5N   80.2W                 72                N/A     2/ 6

$$
FLZ050-056-061-142-242-148-248-149-249-151-251-155-255-
160-260-211300-
WEST CENTRAL FLORIDA

CITY           SKY/WX    TMP DP  RH WIND       PRES   REMARKS
CRYSTAL RIVER  CLOUDY    61  61 100 CALM      30.11S FOG
INVERNESS      FOG       61  61 100 CALM      30.12F VSB 1/2
BROOKSVILLE    CLOUDY    63  61  93 E6        30.12R
CLEARWATER AIR FAIR      64  61  88 SE6       30.09S
ST PETE CLEARW CLOUDY    65  61  87 SE6       30.10R
TAMPA INTL     CLOUDY    68  60  75 E5        30.11R
TAMPA EXEC     CLOUDY    63  61  94 CALM      30.11R
PLANT CITY     MOCLDY    64  63  94 E6        30.12S
MACDILL AFB    CLOUDY    64  64  99 SE5       30.10R
PETER O KNIGHT CLOUDY    68  63  83 E6        30.11R
ST PETERSBURG  CLOUDY    66  62  87 SE6       30.09R
SARASOTA       CLOUDY    62  59  90 E7        30.08R
VENICE         FAIR      64  63  94 E9        30.09S

STATION/POSITION SKY/WX   TEMP    WIND        PRES    WAVE   SWELL
                          AIR SEA DIR/SP/G            HT/PER HT/PER
                          (F)     (DEG/KT/KT) (MB)    (FT/S) (FT/S)
27.3N   84.2W                 71                N/A     2/ 4
CLEARWATER BEACH           68 77  120/  6/ 10 1019.2R
MIDDLE TAMPA BAY           64     150/  7/  8 1019.4R
VENICE                     65 69   90/  7/  8 1018.7R

$$
FLZ066-069-070-075>078-162-262-165-265-211300-
SOUTHWEST FLORIDA AND KEYS

CITY           SKY/WX    TMP DP  RH WIND       PRES   REMARKS
PUNTA GORDA    CLOUDY    59  58  96 NE3       30.11S FOG
FT MYERS       CLOUDY    66  62  87 CALM      30.09R
SOUTHWEST INTL MOCLDY    65  60  84 NE5       30.09R
NAPLES         CLOUDY    66  62  87 NE7       30.09R
MARCO ISLAND   CLOUDY    64  61  88 NE9       30.09R
MARATHON       CLOUDY    74  65  73 NE8       30.06R
KEY WEST INTL  CLOUDY    73  65  75 E6        30.06R

STATION/POSITION SKY/WX   TEMP    WIND        PRES    WAVE   SWELL
                          AIR SEA DIR/SP/G            HT/PER HT/PER
                          (F)     (DEG/KT/KT) (MB)    (FT/S) (FT/S)
NAPLES                        74              1018.8R
26.0N   85.6W              75 75  120/ 12/ 14 1016.8R   2/ 5
DRY TORTUGAS               73      90/  8/  9 1018.0R
SAND KEY                   74      80/ 12/ 15 1018.2R
LONG KEY                   72 76   30/ 13/ 15 1017.7R

$$
FLZ067-068-071>074-168-172>174-211300-
SOUTHEAST FLORIDA

CITY           SKY/WX    TMP DP  RH WIND       PRES   REMARKS
W PALM BEACH   CLOUDY    69  58  67 NE3       30.10R
BOCA RATON     PTCLDY    68  59  73 E3        30.09
FT LAUDER-EXEC PTCLDY    68  57  68 CALM      30.09R
FT LAUDERDALE  CLOUDY    71  57  61 E5        30.08R
POMPANO BEACH  CLOUDY    73  60  63 E6        30.08R
PEMBROKE PINES CLOUDY    64  57  78 CALM      30.10R
OPA LOCKA      MOCLDY    66  59  78 NW3       30.09R
MIAMI          CLOUDY    67  58  72 CALM      30.08R
WEST KENDALL   CLOUDY    61  59  93 CALM      30.08R
HOMESTEAD      CLOUDY    63  62  95 CALM      30.07R

STATION/POSITION SKY/WX   TEMP    WIND        PRES    WAVE   SWELL
                          AIR SEA DIR/SP/G            HT/PER HT/PER
                          (F)     (DEG/KT/KT) (MB)    (FT/S) (FT/S)
PORT EVERGLADES            73      80/  6/  9 1018.5R
VIRGINIA KEY               74 80   70/  6/  8 1018.8R
LAKE WORTH                         90/  7/ 10   N/A
FOWEY ROCKS                74 76   90/  8/  9 1019.0R

$$





USA.gov is the U.S. government's official web portal to all federal, state and local government web resources and services.